Weather History for Ahwaz, Iran

Change the Weather History Date:

Wednesday, October 17, 2012

  Actual Average Record
Temperature  
Mean Temperature 80 °F -  
Max Temperature 97 °F - - ()
Min Temperature 64 °F - - ()
Cooling Degree Days 16    
Growing Degree Days 30 (Base 50)    
Moisture  
Dew Point 50 °F    
Average Humidity 34    
Maximum Humidity 59    
Minimum Humidity 12    
Precipitation  
Precipitation 0.00 in - - ()
Sea Level Pressure  
Sea Level Pressure 29.86 in    
Wind  
Wind Speed 4 mph ()    
Max Wind Speed 7 mph    
Max Gust Speed -    
Visibility 4.3 miles    
Events      
T = Trace of Precipitation, MM = Missing Value Source: Averaged Metar Reports

Daily Weather History Graph

Daily Weather History Graph

Search for Another Location

Airport:

Trip Planner

Search our weather history database for the weather conditions in past years. The results will help you decide how hot, cold, wet, or windy it might be!

Date:

Astronomy

Oct. 17, 2012 Rise Set
Actual Time 6:19 AM IRST 5:41 PM IRST
Civil Twilight 5:55 AM IRST 6:05 PM IRST
Nautical Twilight 5:26 AM IRST 6:33 PM IRST
Astronomical Twilight 4:58 AM IRST 7:01 PM IRST
Moon 8:16 AM IRST (10/17) 7:07 PM IRST (10/17)
Length of Visible Light 12h 10m
Length of Day
11h 21m
Waxing Crescent, 5% of the Moon is Illuminated
Oct 17
Waxing Crescent
Oct 22
First Quarter
Oct 29
Full
Nov 7
Last Quarter
Nov 14
New

Hourly Weather History & Observations

Time (IRST) Temp. Heat Index Dew Point Humidity Pressure Visibility Wind Dir Wind Speed Gust Speed Precip Events Conditions
12:30 AM 78.8 °F - 46.4 °F 32% 29.89 in - West 6.9 mph - N/A   Clear
1:30 AM 78.8 °F - 48.2 °F 34% 29.86 in - WSW 6.9 mph - N/A   Clear
2:30 AM 77.0 °F - 48.2 °F 36% 29.86 in - West 6.9 mph - N/A   Clear
3:30 AM 73 °F - 51 °F 35% 29.87 in 6 mi West 4.5 mph - -  
3:30 AM 73.4 °F - 51.8 °F 47% 29.86 in - West 4.6 mph - N/A   Clear
4:30 AM 69.8 °F - 51.8 °F 53% 29.86 in 5.0 mi Calm Calm - N/A   Clear
5:30 AM 66.2 °F - 50.0 °F 56% 29.86 in 5.0 mi WSW 4.6 mph - N/A   Clear
6:30 AM 64.4 °F - 50.0 °F 59% 29.86 in 5.0 mi WSW 2.3 mph - N/A   Clear
7:30 AM 68.0 °F - 48.2 °F 49% 29.86 in 3.7 mi West 2.3 mph - N/A   Clear
8:30 AM 77.0 °F - 48.2 °F 36% 29.89 in 4.3 mi Calm Calm - N/A   Clear
9:30 AM 79 °F - 47 °F 22% 29.91 in 4 mi ENE 4.5 mph - -   Haze
9:30 AM 78.8 °F - 48.2 °F 34% 29.89 in 4.3 mi ENE 4.6 mph - N/A   Clear
10:30 AM 86.0 °F - 50.0 °F 29% 29.89 in 2.5 mi Calm Calm - N/A   Haze
11:30 AM 89.6 °F - 50.0 °F 26% 29.89 in 2.5 mi SSW 4.6 mph - N/A   Haze
12:30 PM 93.2 °F - 51.8 °F 24% 29.86 in 2.5 mi Calm Calm - N/A   Haze
1:30 PM 93.2 °F - 51.8 °F 24% 29.86 in 3.7 mi West 6.9 mph - N/A   Clear
2:30 PM 96.8 °F - 51.8 °F 22% 29.86 in 4.3 mi West 6.9 mph - N/A   Clear
3:30 PM 97 °F - 50 °F 12% 29.84 in 6 mi NNW 6.7 mph - -  
3:30 PM 96.8 °F - 50.0 °F 20% 29.83 in - NNW 6.9 mph - N/A   Clear
4:30 PM 95.0 °F - 51.8 °F 23% 29.83 in - NNW 6.9 mph - N/A   Clear
5:30 PM 93.2 °F - 51.8 °F 24% 29.83 in - NW 6.9 mph - N/A   Clear
6:30 PM 89.6 °F 87.3 °F 53.6 °F 29% 29.83 in - NW 4.6 mph - N/A   Clear
7:30 PM 80.6 °F 80.5 °F 55.4 °F 42% 29.83 in - Calm Calm - N/A   Clear
8:30 PM 78.8 °F - 53.6 °F 42% 29.83 in - NW 4.6 mph - N/A   Clear
9:30 PM 83 °F - 48 °F 19% 29.86 in 6 mi Calm Calm - -  
9:30 PM 82.4 °F - 48.2 °F 30% 29.83 in - Calm Calm - N/A   Clear
10:30 PM 75.2 °F - 51.8 °F 44% 29.86 in - Calm Calm - N/A   Clear
11:30 PM 73.4 °F - 50.0 °F 44% 29.86 in - Calm Calm - N/A   Clear